CAPE
1067 923 818 920 758 482 421 597 603 512 673 503 230 374 726 623 427 535 829 1438 1465 1630 1628 1612 1517 1286 1630 1424 1450 1368 1262 1166 1024 905 907 871 847 880 951 961 1096 808 860 722 486 708 716 730 951 1028 916 1013 1585 1580 1659 1538 1244 999 1199 927 848 1020
1266 956 829 826 632 318 360 385 494 663 601 696 554 619 852 610 753 742 956 991 1134 2002 1673 1482 1393 1418 1380 1529 1363 1360 1206 1081 980 964 939 922 918 891 1019 1099 1132 1216 665 748 692 635 351 968 1107 1073 1152 1006 1215 1244 1161 1610 1485 695 982 974 1060 1331
1047 812 660 687 576 375 434 677 595 744 678 716 648 671 745 775 557 769 832 978 1171 1456 1969 1850 1358 1411 1405 1222 1396 1314 1116 1013 1130 1004 979 1081 1078 995 1104 1188 1248 1248 1033 948 759 207 175 173 663 1143 1376 1148 627 1079 1102 1603 1058 1308 905 834 1030 1531
1061 853 731 672 535 544 637 621 600 762 674 870 848 689 466 260 417 547 560 763 983 1578 1794 2232 1084 1234 1194 1585 1529 1471 1302 1265 1138 1207 1091 1114 1102 1157 1194 1236 1431 1212 1132 285 62 128 451 504 385 649 502 582 773 867 1342 1174 1007 824 949 1204 1231 1911
977 914 879 878 718 727 838 659 556 674 846 906 730 557 303 280 459 532 648 938 1165 1513 1732 1793 1606 1323 1210 1280 1266 1261 1257 1187 1244 1118 1281 948 1103 853 1223 886 880 974 235 179 151 234 400 802 753 444 697 918 1038 1120 1217 1337 1432 982 951 986 1442 1801
916 882 991 1040 962 1039 1242 892 738 956 1112 834 452 279 374 365 492 879 857 796 1114 1249 1348 1911 1488 1354 1294 1217 1117 1209 1215 1174 1142 1132 1255 1132 1100 994 832 892 516 234 201 109 237 552 330 846 957 928 703 761 826 888 870 1189 1101 1596 914 1313 1640 1860
835 1002 1032 1090 1404 1205 1092 1115 1138 1068 876 417 512 431 728 513 453 696 648 761 960 1238 1505 1609 1498 1496 1348 1321 1153 1362 1655 1752 1460 1589 1451 1149 1191 824 420 452 406 345 319 352 448 219 300 337 503 580 303 457 481 487 1075 626 1382 1371 1033 1090 1750 1946
934 910 845 925 1003 986 1081 925 953 720 883 605 544 504 590 654 637 572 626 718 1506 1182 1152 1307 1428 1467 1375 1321 1405 1211 1571 1420 1441 1128 1510 1258 751 674 674 614 714 418 644 411 348 614 640 264 274 315 481 319 487 515 514 822 1020 1898 1039 1010 1587 1981
1273 899 714 1155 1185 973 1066 856 704 736 706 850 837 718 679 509 560 584 646 1220 1387 1491 1151 1299 1362 1323 1258 1383 1563 1397 1468 1167 1143 1056 1199 861 654 686 399 428 726 729 975 968 1079 829 1173 940 458 224 257 213 307 149 538 651 774 1481 1656 864 1209 1819
1321 755 820 1058 1247 1303 1090 1238 818 955 1030 849 502 317 532 571 550 746 1014 1087 1593 1743 1598 1437 1506 1616 1312 1248 1452 1475 1222 1081 1065 1093 983 725 688 589 632 792 1012 1002 1148 1318 1549 1423 1626 1409 1176 584 230 304 221 216 334 374 884 869 1664 1015 894 1735
909 865 863 944 904 985 1016 1118 1008 901 750 736 497 574 720 730 978 1316 1292 1440 1400 1387 1464 1608 1605 1562 1500 1271 1242 1152 1337 961 1054 760 661 742 918 811 753 566 549 646 881 969 1542 1766 1800 1640 1225 943 717 572 300 71 237 248 516 853 1476 1360 964 1312
948 957 968 810 880 830 732 837 804 616 572 356 449 800 679 971 1213 1275 1228 1180 1068 887 892 1090 1164 1409 1422 1279 1163 1067 922 1212 1047 814 883 906 788 657 824 810 600 846 1054 1190 1385 1656 1302 1048 1047 951 1092 811 612 183 230 208 110 1125 1322 1667 1044 896
1035 1163 939 925 1005 1076 926 821 781 488 510 434 448 678 772 1013 1214 1191 1216 1038 893 747 754 894 1240 1254 1132 1370 1097 944 929 806 842 991 874 998 778 726 699 1114 820 774 918 1190 1279 1190 981 1286 1001 1036 1144 930 698 560 260 85 283 890 1403 1732 1427 1019
1539 1550 1326 1013 1135 1165 1212 884 684 834 712 549 393 538 703 781 992 1261 921 909 859 774 651 908 897 928 1061 1103 804 866 640 859 722 1042 1167 988 722 874 910 1084 1093 1047 1015 1086 1186 889 1083 890 1147 1196 783 1423 1008 605 377 661 241 439 1144 1610 1743 1290
1336 1318 1696 1537 1528 1548 1569 1214 950 650 529 462 545 477 690 774 1071 1270 1280 1180 806 826 942 979 852 1187 1504 1123 747 700 622 742 688 984 1064 1174 1186 1123 960 930 732 832 1014 1093 1320 1238 852 898 922 514 692 1010 901 695 872 552 375 1014 878 917 1752 1745
1200 1374 1454 1518 1882 1627 1602 1623 1308 870 745 608 668 620 484 1057 1075 943 861 765 754 770 984 1158 1126 1232 1633 1138 690 572 834 906 870 1053 1025 1257 1064 1062 926 928 623 697 1098 1079 1108 1446 1038 918 759 740 850 1001 1332 900 856 339 630 644 533 789 757 955
1337 1240 1500 1732 1732 1676 1637 1576 1592 1822 1624 1515 1304 1265 683 1114 1094 806 623 869 874 1026 1003 1114 1270 1220 1388 770 647 831 855 1270 1213 1304 1412 1409 1354 1072 1000 867 868 692 1027 1010 796 1083 1168 802 708 576 822 771 900 1191 946 1199 1000 1152 569 768 1008 1204
1204 1437 1796 1742 1590 1509 1578 1544 1520 1461 1736 1699 1711 1312 1476 1369 1162 1181 973 1094 1212 1237 1346 1261 1127 986 1356 1460 687 1117 1040 1295 1338 1383 1390 1323 1288 1140 1046 1209 1219 966 985 1154 1044 1101 1000 781 570 423 369 539 1076 1474 1531 1078 1632 1051 634 730 634 1216
1560 1934 1915 1777 1483 1424 1433 1407 1539 1654 1821 1762 1674 1422 1132 732 1222 1638 1352 1283 1276 1495 1465 1498 1355 1408 1474 1506 1077 936 1544 968 1076 1274 1360 1154 1174 1097 1130 1234 1292 1298 1290 1180 1314 1005 810 679 484 631 622 868 612 1182 1316 1409 1513 1301 519 355 869 917
1663 1600 1353 1287 1341 1313 1406 1545 1467 1541 1297 1215 882 844 762 747 1169 1215 1430 1201 1189 1886 1215 1339 1334 1394 1390 1467 1351 1361 1268 1280 1322 1201 1154 754 1012 1025 1050 1179 1312 1170 1274 1177 1200 943 683 650 737 700 675 907 1101 1341 1263 1212 710 998 695 546 442 555
1414 1316 1305 1372 1384 1479 1638 1706 1431 1280 1356 1356 638 728 877 614 592 828 698 798 1116 1506 1166 1308 1278 1275 1257 1124 704 1144 1086 1056 1242 1128 1353 1236 1121 1090 1229 1338 1321 1445 1333 1106 621 897 846 694 666 560 783 902 1038 1254 1366 1075 827 926 810 620 544 535
1483 1397 1501 1507 1671 2013 1916 1715 1553 1072 660 449 446 464 471 623 586 537 615 781 906 604 730 938 926 1232 1011 809 824 825 1333 1067 997 1098 1201 1324 1212 746 1150 1387 1441 1546 1039 1046 1060 852 1045 904 612 479 533 717 913 1041 1119 831 664 695 810 790 483 330
1012 1040 1334 1674 1849 2129 2070 1743 1426 926 527 406 637 546 297 522 594 425 718 646 885 884 676 507 682 644 775 670 845 899 905 1078 1051 993 1093 1115 1131 1150 1468 1306 1162 1176 715 773 1192 1133 1376 1343 831 774 825 494 571 390 1069 1113 910 811 776 865 459 386
851 1058 1327 1283 1891 2223 2019 1597 1455 1262 1010 691 499 570 402 271 240 293 549 577 693 1084 608 397 115 63 249 624 721 752 780 713 519 750 557 644 784 904 1344 1369 1104 854 1108 581 703 760 982 1145 668 923 626 598 396 426 255 426 595 592 585 581 631 307
847 874 1052 1736 2118 2132 1669 1317 1148 1026 757 659 701 415 273 379 324 182 350 430 305 360 274 160 62 272 320 514 682 659 569 640 632 659 875 639 538 526 274 315 564 756 946 938 645 806 535 525 704 905 881 574 324 381 425 647 637 474 498 407 467 575
771 781 1182 1596 2079 1902 1437 1182 1178 960 910 704 414 565 710 261 287 419 101 392 258 195 52 244 226 199 205 339 555 528 420 365 644 448 555 432 476 602 423 423 360 508 672 847 915 474 636 784 561 1091 1028 921 1056 888 626 698 670 315 397 305 452 335
827 974 1559 1706 1456 1667 1402 1358 1205 915 677 682 739 919 755 933 397 282 772 427 244 390 194 215 236 356 224 233 326 294 238 428 193 342 345 562 554 432 265 354 550 566 553 699 710 661 637 668 778 629 660 862 830 712 991 676 342 424 288 320 516 414
884 1355 1812 2004 1872 1810 1363 1326 1093 832 888 892 1135 827 747 590 786 511 399 274 290 238 154 211 306 109 232 268 225 52 10 0 325 210 186 146 231 318 310 403 595 683 766 606 743 777 581 690 760 732 674 345 338 707 449 803 633 603 338 137 48 8
1603 1570 1968 1944 1341 1062 1559 1998 1507 946 1032 865 835 662 258 228 349 370 363 527 443 118 190 106 5 5 0 0 0 0 7 129 249 215 41 119 39 11 106 509 646 619 419 547 708 574 362 518 587 405 689 572 573 795 728 873 706 818 400 207 113 71
1584 1596 1689 1736 1392 1349 1448 1434 1125 1076 935 765 592 395 304 486 484 695 466 168 208 191 70 252 108 35 22 0 16 45 28 94 76 5 0 0 0 14 170 234 381 420 456 409 380 336 343 243 24 231 112 238 321 396 287 544 757 462 344 459 109 56
1601 1519 1508 1474 1390 1441 1453 1385 1335 1026 668 590 616 584 416 434 534 372 64 149 164 175 18 4 44 8 0 3 28 36 46 0 1 0 0 0 0 8 214 280 153 89 113 155 84 36 22 53 2 0 0 0 0 0 146 564 508 590 429 351 159 27
1482 1312 1352 1450 1475 1272 1078 1299 1124 1248 831 709 568 341 257 380 342 127 240 284 131 0 0 46 42 58 35 0 8 8 19 11 33 7 0 36 0 0 0 0 0 0 0 0 0 2 1 0 6 0 0 2 0 0 0 281 430 448 499 358 375 13
1236 1378 1270 1508 1360 1198 1055 1058 1003 1287 1082 882 480 354 374 309 254 275 370 147 12 0 0 1 0 0 10 27 42 57 108 131 100 62 69 0 0 0 0 0 0 0 0 0 0 0 0 0 0 0 0 0 0 0 0 15 170 252 193 94 287 0
1197 1375 1309 1333 1130 947 982 1088 1103 1098 1074 740 661 461 406 334 345 339 319 118 43 0 18 8 10 15 0 0 0 0 0 0 0 0 0 0 0 0 0 0 0 0 0 0 0 0 0 0 0 0 0 0 0 0 0 0 95 230 93 154 42 5
1268 1424 1492 1267 1014 959 948 1154 1430 916 836 910 562 543 465 447 399 336 109 87 51 61 0 1 31 0 0 0 0 0 0 0 0 0 0 0 0 0 0 0 0 0 0 0 0 0 0 0 0 0 0 0 0 0 0 0 0 0 31 24 1 1
1472 1457 1379 1303 1145 1161 1085 1317 922 759 828 780 307 546 508 356 551 188 148 157 148 11 29 61 0 0 1 0 0 0 0 0 0 0 0 0 0 0 0 0 0 0 0 0 0 0 0 0 0 0 0 0 0 0 0 0 0 0 0 54 2 65
1548 1448 1478 1387 1306 1308 1204 1179 703 853 979 742 561 670 532 589 329 314 321 216 99 80 117 47 6 10 1 0 2 2 0 0 2 0 0 0 0 0 0 0 0 0 0 0 0 0 0 0 0 0 0 0 0 0 0 0 0 0 0 8 17 0
Wind_Speed
31 33 32 31 29 30 31 32 30 32 33 34 31 27 27 34 34 31 26 32 34 30 30 34 38 39 40 37 34 29 25 24 20 18 17 18 19 19 19 18 17 15 14 13 15 16 15 15 15 14 13 10 11 14 12 11 14 19 17 19 20 19
30 31 30 28 26 26 26 27 25 26 26 29 28 25 28 30 29 28 31 34 33 32 31 33 37 39 35 35 30 25 23 22 19 18 18 19 19 18 18 17 16 14 14 13 13 16 17 16 15 13 14 13 14 15 12 12 17 18 19 20 20 20
31 30 29 26 24 23 24 23 24 24 24 26 26 28 27 29 26 29 30 32 33 30 31 34 35 35 31 28 27 24 22 21 18 18 18 18 18 17 17 16 15 14 13 12 14 15 15 20 19 15 15 17 16 13 14 15 15 19 18 22 21 23
31 29 26 23 22 21 21 22 22 21 21 23 25 26 26 25 25 27 28 28 26 24 28 30 28 28 26 23 22 21 20 18 19 18 18 17 17 16 15 14 13 13 14 14 nan 14 15 19 20 21 18 17 16 14 13 19 13 19 17 23 22 24
30 29 27 24 22 22 22 21 22 21 20 21 25 24 23 21 24 24 24 23 21 19 21 21 22 23 22 19 16 16 17 17 16 16 17 15 16 14 13 13 15 15 14 13 13 13 15 20 20 20 19 17 15 15 19 17 24 19 17 22 24 25
31 32 29 25 24 23 23 21 22 21 18 22 25 26 22 24 24 24 21 20 17 16 16 15 17 19 19 15 14 15 15 16 15 16 16 12 14 14 14 13 18 16 13 12 10 17 14 19 16 19 19 18 16 18 17 19 24 22 19 22 23 25
31 31 31 26 24 22 20 19 21 20 19 21 23 24 22 23 24 22 20 19 18 15 15 14 12 12 13 12 14 15 16 16 15 16 15 11 14 14 19 24 19 18 14 14 14 14 16 19 18 18 16 18 17 16 19 21 22 20 20 20 21 24
31 30 30 26 22 21 19 19 21 19 16 20 21 22 20 22 22 20 17 16 14 12 13 14 10 9 11 12 14 14 16 14 13 14 15 15 18 17 20 14 13 14 12 13 13 19 18 21 18 15 14 16 19 14 17 21 20 17 21 19 20 22
32 33 29 21 20 18 21 19 21 20 15 18 21 23 21 18 15 14 11 8 8 8 10 11 11 12 15 15 16 16 14 12 11 12 13 16 17 16 16 13 12 15 17 15 13 16 16 17 17 15 15 14 13 14 18 20 18 17 19 19 19 20
31 31 24 17 19 21 22 20 19 16 16 18 19 20 16 11 8 12 9 4 5 9 11 12 12 13 15 14 15 15 12 11 11 12 11 13 17 14 15 15 15 14 12 13 13 12 13 16 16 15 14 17 17 12 16 16 19 17 18 19 19 18
28 27 21 21 22 23 20 16 13 12 16 12 10 11 11 10 8 6 6 6 7 12 12 13 12 13 13 11 13 11 10 11 10 12 12 11 12 14 15 14 12 10 13 12 12 11 14 15 16 14 16 20 19 nan 8 12 18 17 18 20 20 19
28 27 26 23 23 19 13 11 9 11 12 12 10 11 13 10 8 9 9 8 9 11 12 12 10 11 11 10 10 9 10 11 12 12 14 10 10 11 13 11 9 12 14 13 10 11 13 14 15 16 18 18 19 16 13 5 12 19 18 20 20 20
30 29 31 27 24 18 11 10 10 13 14 14 16 13 10 10 9 10 10 10 10 12 12 11 10 11 9 10 8 9 13 11 11 12 13 10 9 11 10 9 9 11 11 11 10 11 12 13 15 16 15 16 16 17 18 nan 10 18 17 19 20 22
28 29 30 27 23 19 14 16 14 16 18 19 17 11 10 14 12 11 10 9 10 11 11 9 10 10 9 10 12 11 11 11 11 10 10 10 9 9 10 8 10 10 9 9 10 11 11 12 13 11 12 12 11 13 13 11 15 12 15 17 20 21
26 26 26 25 23 19 16 20 19 17 17 17 14 13 15 15 15 13 9 11 10 10 11 10 12 12 13 15 16 14 10 12 11 11 9 8 8 8 8 8 8 7 8 8 9 10 9 9 8 7 9 9 10 8 12 18 17 16 14 14 18 19
25 26 24 24 23 20 17 17 19 15 18 17 15 18 13 15 17 11 8 8 10 12 13 13 14 15 13 17 15 11 10 13 12 10 10 9 9 8 9 8 8 6 6 6 8 9 8 7 5 5 8 10 9 10 13 16 20 18 13 13 15 14
24 25 23 23 24 20 17 17 18 22 20 19 18 20 19 18 17 13 10 9 10 13 14 16 18 18 19 18 14 12 9 11 11 10 9 8 7 7 9 10 8 6 6 6 5 8 8 6 5 6 8 9 5 6 10 12 12 16 13 15 13 13
23 23 22 23 23 20 19 18 19 20 19 19 20 20 18 19 17 16 16 16 15 15 16 17 17 16 17 15 16 11 12 11 11 10 10 7 7 7 7 7 7 6 5 5 6 8 8 8 7 6 7 5 3 4 6 7 9 15 13 11 13 16
24 22 22 23 22 21 19 18 18 17 18 17 16 16 20 21 20 20 19 22 21 20 18 18 15 13 12 10 14 12 12 14 9 11 8 8 6 8 7 7 6 7 6 5 8 8 8 9 10 9 7 6 4 5 6 6 11 14 18 15 13 17
25 25 24 23 20 17 15 15 16 16 19 16 16 16 19 22 22 24 24 26 25 21 19 15 14 10 9 9 12 13 14 13 12 12 8 8 7 8 8 8 6 6 7 6 9 10 9 9 9 10 8 7 5 5 7 9 12 13 16 19 17 11
27 27 23 20 18 15 15 16 16 17 18 16 18 17 20 21 22 23 26 28 26 20 15 14 14 13 10 15 14 13 12 11 12 12 8 8 6 7 7 7 8 6 7 8 8 8 11 9 11 10 8 7 6 6 9 11 12 13 16 18 22 16
28 24 22 20 18 16 15 17 17 15 17 19 17 21 23 22 22 23 25 25 23 20 18 16 14 12 14 14 14 13 12 12 11 13 8 6 6 6 7 8 7 8 8 9 10 9 8 11 10 11 10 9 8 8 11 12 12 14 14 18 22 21
26 24 21 21 18 18 17 17 16 16 16 19 22 21 23 21 20 23 25 24 19 19 18 17 15 14 13 15 14 13 12 12 11 12 10 9 7 7 6 7 8 9 11 10 10 8 8 7 11 10 11 10 10 9 9 12 14 14 16 17 20 23
22 25 24 20 18 19 18 17 18 21 24 24 22 22 22 21 20 22 23 22 19 18 17 16 17 nan 19 16 14 14 13 12 10 8 9 9 9 9 11 5 9 10 10 12 10 11 11 10 10 11 11 10 10 10 10 12 14 13 15 18 18 22
24 25 22 17 18 20 20 19 21 23 23 23 21 22 21 20 22 23 22 22 21 19 19 20 nan 20 20 17 16 15 14 12 10 8 8 10 11 10 9 9 11 11 11 10 13 12 13 12 8 10 10 11 10 10 12 13 14 15 14 17 15 19
26 23 14 15 19 20 21 22 21 21 21 22 23 21 21 19 18 21 22 19 20 21 nan 19 20 21 21 19 16 14 12 15 12 10 10 11 11 12 12 10 10 10 12 11 12 14 12 10 9 10 11 11 10 11 12 11 10 15 15 16 16 18
27 22 15 18 19 19 21 22 20 20 20 22 23 23 20 18 21 21 21 22 21 21 23 23 21 21 20 18 17 13 11 13 15 13 13 12 11 12 12 11 11 13 14 12 14 14 14 11 11 12 11 11 10 11 10 12 13 17 18 15 16 19
24 23 22 23 22 19 21 20 20 20 20 21 26 26 21 20 20 21 22 21 21 21 22 22 22 21 19 18 16 nan nan nan 10 15 14 14 13 11 12 12 12 13 14 15 15 16 14 12 13 11 12 11 11 13 12 13 14 15 19 20 nan nan
24 24 23 22 19 18 19 19 19 18 20 24 28 29 24 23 24 22 21 20 21 22 22 22 nan nan nan nan nan nan nan 12 11 11 nan 14 nan nan 12 12 13 14 15 16 16 16 16 13 13 14 13 12 12 13 13 14 17 16 19 22 22 nan
22 21 19 18 17 17 18 19 19 16 21 23 26 29 29 29 26 23 24 25 24 22 nan 21 22 nan nan nan nan nan nan nan nan nan nan nan nan nan 15 15 15 15 16 17 17 16 16 15 nan 13 13 13 15 14 14 16 16 18 19 18 21 nan
22 20 17 18 20 22 20 19 19 18 23 24 26 30 32 28 25 24 nan 25 24 22 nan nan nan nan nan nan nan nan nan nan nan nan nan nan nan nan 15 15 16 nan 17 19 nan nan nan nan nan nan nan nan nan nan 14 16 19 19 19 19 23 nan
24 22 19 18 21 20 19 20 20 20 22 22 25 28 28 24 23 24 24 26 26 nan nan nan nan nan nan nan nan nan nan nan nan nan nan nan nan nan nan nan nan nan nan nan nan nan nan nan nan nan nan nan nan nan nan 20 20 21 21 22 21 nan
24 22 21 21 23 22 20 21 21 20 22 22 24 25 25 26 26 27 24 26 nan nan nan nan nan nan nan nan nan nan 16 16 14 nan nan nan nan nan nan nan nan nan nan nan nan nan nan nan nan nan nan nan nan nan nan nan 23 21 19 nan 20 nan
25 22 22 22 25 26 24 21 19 19 23 23 23 24 27 30 31 28 25 23 nan nan nan nan nan nan nan nan nan nan nan nan nan nan nan nan nan nan nan nan nan nan nan nan nan nan nan nan nan nan nan nan nan nan nan nan nan 20 nan 19 nan nan
25 23 22 23 24 25 22 20 17 20 21 20 23 25 28 29 29 28 25 nan nan nan nan nan nan nan nan nan nan nan nan nan nan nan nan nan nan nan nan nan nan nan nan nan nan nan nan nan nan nan nan nan nan nan nan nan nan nan nan nan nan nan
26 24 21 23 25 23 20 18 20 22 22 23 25 26 27 27 27 27 24 24 25 nan nan nan nan nan nan nan nan nan nan nan nan nan nan nan nan nan nan nan nan nan nan nan nan nan nan nan nan nan nan nan nan nan nan nan nan nan nan nan nan nan
26 25 24 23 24 22 20 21 23 22 25 28 28 27 28 27 27 26 26 26 nan nan 26 nan nan nan nan nan nan nan nan nan nan nan nan nan nan nan nan nan nan nan nan nan nan nan nan nan nan nan nan nan nan nan nan nan nan nan nan nan nan nan
Wind_Direction
299 299 297 299 299 300 299 294 289 290 285 288 292 294 295 283 277 286 287 274 267 263 258 259 261 262 261 253 253 268 277 271 269 270 274 281 286 287 290 289 290 293 290 287 287 287 288 291 292 287 286 275 256 261 267 260 262 264 262 262 264 268
295 298 299 300 299 297 297 294 290 288 280 284 288 288 281 278 282 278 275 264 256 252 253 255 257 258 250 258 270 278 272 262 262 268 275 280 282 285 284 284 284 286 282 278 272 276 286 291 292 284 281 274 260 264 261 257 261 259 261 258 263 270
297 299 301 299 296 295 295 290 290 288 283 285 286 281 272 279 277 271 266 263 259 252 249 251 251 251 254 275 277 274 262 261 269 276 279 279 279 280 280 281 281 276 273 269 273 278 276 283 283 293 277 270 268 263 257 260 252 260 256 258 261 275
301 302 300 295 293 292 293 292 291 292 288 284 280 277 273 273 271 269 268 269 266 263 258 253 260 263 268 271 269 259 264 272 276 280 281 275 276 278 281 282 276 268 269 273 nan 281 283 280 277 279 278 275 272 268 271 259 255 266 258 261 265 275
304 300 294 289 290 293 295 297 296 292 290 283 273 269 272 275 269 267 264 265 268 268 262 256 253 252 256 265 262 257 258 262 269 270 281 272 274 279 281 278 273 272 263 269 277 280 273 267 277 277 276 276 272 268 264 265 258 261 246 253 265 275
302 294 288 288 296 296 298 297 296 295 287 278 275 272 265 265 263 266 268 268 262 259 260 252 253 253 257 261 260 257 263 268 275 277 275 265 270 267 275 263 262 260 268 275 282 268 260 277 268 277 271 273 261 260 265 264 271 265 256 253 263 274
296 288 285 294 291 291 292 295 292 290 288 282 282 270 262 262 261 265 269 260 258 260 252 247 243 241 249 251 254 254 255 256 259 255 266 267 257 245 248 242 236 237 238 244 238 261 268 264 265 256 261 269 264 260 261 265 265 267 262 262 266 275
290 287 279 282 288 291 295 290 287 279 280 281 280 280 267 266 270 268 263 250 244 246 239 237 233 245 260 258 257 262 260 262 258 259 255 253 262 258 266 271 271 277 285 267 251 253 249 246 243 247 260 264 273 267 269 271 271 268 268 264 267 271
282 281 277 286 300 293 291 293 284 292 285 288 273 266 271 260 259 252 245 240 235 240 238 240 253 267 273 266 261 264 263 263 264 260 261 271 275 277 284 283 263 255 253 257 264 258 251 262 261 251 239 252 268 273 273 277 285 268 269 268 266 272
269 268 279 296 289 283 280 278 282 279 270 260 258 278 280 262 228 223 224 249 264 263 268 269 267 261 265 259 261 256 260 257 256 261 260 270 280 288 274 268 256 257 257 263 273 269 267 274 271 250 250 234 225 246 275 278 282 278 272 272 269 274
271 284 297 300 290 282 285 285 277 273 267 258 248 278 265 230 240 256 248 259 275 267 263 260 261 264 260 270 267 261 257 266 265 267 270 264 275 278 283 282 284 277 269 269 276 280 269 270 267 261 244 236 230 nan 246 268 291 287 281 277 274 276
282 292 297 296 289 288 293 291 276 257 261 279 291 266 236 230 254 271 299 303 293 287 287 286 277 272 269 267 261 263 264 271 281 282 286 296 286 298 290 294 277 267 266 274 275 268 270 263 259 257 244 233 231 230 210 226 262 273 279 277 281 277
289 292 293 292 289 282 280 275 254 263 286 283 267 256 273 282 282 295 303 304 298 290 279 279 282 268 259 275 289 287 275 282 293 295 297 296 286 281 285 283 278 277 285 280 274 263 259 264 263 255 249 239 223 229 218 nan 247 286 274 279 277 273
283 286 286 290 290 283 276 264 253 269 270 267 275 282 295 300 307 315 315 305 286 289 294 302 292 292 286 292 291 285 285 285 283 274 278 277 272 275 278 286 278 285 282 269 262 261 256 257 270 276 254 252 246 235 227 228 222 253 264 268 273 279
278 275 280 288 289 283 270 255 257 261 267 279 300 307 304 303 310 316 316 282 290 286 288 297 297 303 299 294 293 291 303 298 294 287 283 282 282 289 291 291 291 296 292 288 283 276 269 278 269 252 246 257 265 242 256 255 238 221 238 254 261 264
276 273 274 277 277 275 264 254 256 265 274 289 295 292 295 298 293 290 276 286 298 289 293 295 294 290 290 287 296 300 308 298 297 299 303 306 313 316 310 308 307 301 293 287 290 283 288 288 274 253 235 221 236 246 262 271 266 261 249 253 248 257
287 280 273 271 270 266 254 243 239 239 241 256 265 275 289 284 287 286 277 284 282 288 294 293 296 297 292 300 306 312 304 296 303 296 299 309 308 303 312 316 320 319 306 293 286 289 290 291 266 249 241 229 202 247 273 276 274 282 292 294 293 292
289 278 270 268 263 255 247 245 246 245 241 250 257 259 256 264 269 273 285 287 287 288 288 292 292 296 296 301 309 301 301 298 291 293 291 288 297 304 297 302 309 318 314 291 282 274 281 286 282 288 281 279 266 264 280 286 289 281 284 272 278 275
284 271 262 261 253 249 253 253 258 256 251 256 262 266 267 264 258 265 265 278 290 291 292 290 293 287 284 290 298 292 283 290 284 276 278 287 283 287 291 294 310 311 306 297 279 271 274 278 278 284 276 273 278 276 287 293 281 276 279 264 251 268
277 264 258 254 250 253 265 272 271 261 249 247 258 262 258 257 264 265 274 285 285 285 290 282 276 273 271 266 265 271 279 281 277 282 288 283 293 287 298 305 307 302 295 296 284 277 278 271 274 272 267 264 267 266 268 270 265 276 283 287 285 288
269 263 261 260 252 261 274 277 274 262 249 247 252 252 255 258 265 279 286 285 283 279 269 268 265 280 283 280 277 278 275 275 281 274 264 270 267 276 279 282 276 270 283 279 267 284 284 284 275 268 259 274 279 268 267 259 272 270 282 286 291 295
263 261 259 251 248 258 269 272 271 259 248 249 250 249 249 252 260 269 272 272 273 275 279 281 288 282 285 285 280 278 285 287 281 284 279 266 267 273 279 274 274 275 257 254 260 274 293 296 278 285 286 284 272 280 274 275 269 272 276 283 283 289
274 266 247 238 239 248 256 265 261 250 241 239 236 243 253 259 263 263 263 265 267 278 283 283 282 287 282 278 288 292 290 295 293 293 300 302 290 266 257 268 277 270 270 261 264 263 266 254 269 271 273 276 280 275 274 273 273 268 275 278 283 288
268 264 246 235 244 252 255 259 253 242 233 233 239 243 248 250 260 264 264 267 270 272 276 279 282 nan 264 264 265 268 265 263 265 276 288 293 303 299 283 275 260 252 262 272 271 264 249 242 258 268 261 261 268 268 267 268 274 269 269 272 281 288
272 248 236 241 261 259 260 258 256 251 243 242 241 242 246 249 252 258 264 264 266 265 268 270 nan 277 278 272 266 267 273 271 263 260 267 279 263 255 274 280 276 276 272 276 272 266 257 251 255 263 265 272 267 269 269 274 282 266 268 271 270 275
281 271 249 261 270 270 268 266 264 262 254 246 244 241 243 255 267 267 268 278 279 281 nan 279 278 276 279 280 277 276 281 287 285 275 261 261 270 273 262 261 265 267 277 272 282 279 274 274 273 265 267 272 265 275 281 283 287 283 276 278 284 285
292 283 276 274 280 275 272 270 266 267 260 250 243 239 245 254 266 268 270 270 273 274 277 275 275 276 274 272 272 273 271 284 296 286 281 276 279 281 275 271 269 265 267 271 272 279 282 286 283 271 267 267 280 283 285 291 289 298 288 280 281 280
296 289 274 272 267 261 276 268 263 267 268 253 239 239 249 268 273 272 272 278 279 281 282 282 284 282 280 273 267 nan nan nan 282 302 287 280 276 270 275 277 273 274 274 272 272 275 281 282 284 286 293 295 290 293 294 293 287 287 288 289 nan nan
296 295 281 273 268 260 262 257 254 263 267 256 248 243 255 277 282 282 283 281 278 276 273 276 nan nan nan nan nan nan nan 256 246 264 nan 284 nan nan 278 280 283 282 279 274 273 282 287 290 292 296 301 297 308 299 296 291 286 285 290 292 286 nan
304 302 284 272 270 267 267 263 256 247 268 269 263 257 260 274 285 284 277 273 274 274 nan 272 269 nan nan nan nan nan nan nan nan nan nan nan nan nan 283 284 282 284 286 287 283 280 282 283 nan 281 284 290 295 296 287 285 285 284 276 277 287 nan
310 311 300 284 279 279 278 273 266 267 275 279 275 266 263 270 276 277 nan 279 275 274 nan nan nan nan nan nan nan nan nan nan nan nan nan nan nan nan 286 289 288 nan 278 280 nan nan nan nan nan nan nan nan nan nan 288 286 290 287 288 288 291 nan
306 309 303 292 287 288 285 274 270 271 280 280 278 265 259 266 279 284 282 276 270 nan nan nan nan nan nan nan nan nan nan nan nan nan nan nan nan nan nan nan nan nan nan nan nan nan nan nan nan nan nan nan nan nan nan 282 284 286 290 297 297 nan
303 304 301 295 291 288 283 276 272 269 272 276 276 264 253 266 285 288 282 273 nan nan nan nan nan nan nan nan nan nan 262 264 265 nan nan nan nan nan nan nan nan nan nan nan nan nan nan nan nan nan nan nan nan nan nan nan 287 291 294 nan 299 nan
303 305 301 298 293 287 284 281 272 266 271 277 274 265 261 271 282 283 276 272 nan nan nan nan nan nan nan nan nan nan nan nan nan nan nan nan nan nan nan nan nan nan nan nan nan nan nan nan nan nan nan nan nan nan nan nan nan 284 nan 295 nan nan
299 300 298 299 293 289 289 289 280 270 270 274 275 271 271 274 279 277 271 nan nan nan nan nan nan nan nan nan nan nan nan nan nan nan nan nan nan nan nan nan nan nan nan nan nan nan nan nan nan nan nan nan nan nan nan nan nan nan nan nan nan nan
297 294 293 290 288 288 289 291 282 271 268 273 280 280 276 276 275 274 270 268 268 nan nan nan nan nan nan nan nan nan nan nan nan nan nan nan nan nan nan nan nan nan nan nan nan nan nan nan nan nan nan nan nan nan nan nan nan nan nan nan nan nan
290 291 289 288 288 290 293 290 284 269 263 269 280 282 279 276 275 271 267 267 nan nan 266 nan nan nan nan nan nan nan nan nan nan nan nan nan nan nan nan nan nan nan nan nan nan nan nan nan nan nan nan nan nan nan nan nan nan nan nan nan nan nan